{"data":{"norad_id":47772,"epoch":"2026-05-25T05:16:57.878112Z","epoch_age_seconds":46125,"freshness":"FRESH","line1":"1 47772U 21017BC  26145.22011433  .00001026  00000+0  44832-4 0  9995","line2":"2 47772  53.1585 221.3574 0001945  86.8320 273.2904 15.31704488289384","mean_motion":15.31704488,"eccentricity":0.0001945,"inclination_deg":53.1585,"raan_deg":221.3574,"arg_perigee_deg":86.832,"mean_anomaly_deg":273.2904,"bstar":4.4832e-5,"rev_number":28938,"period_min":94.012912495951,"perigee_km":469.39451279039,"apogee_km":472.05872073731,"semimajor_km":6848.8636167639,"source":"CELESTRAK","updated_at":"2026-05-25T13:38:16.594512Z"}}